Regional Weather Roundup
Issued by NWS

Home | Current Version | Previous Version | Text Only | Print | Product List | Glossary On
Versions: 1 2 3 4 5 6 7 8 9 10 11 12 13 14 15 16 17 18 19 20 21 22 23 24 25 26 27 28 29 30 31 32 33 34 35 36 37 38 39 40 41 42 43 44 45 46 47 48 49 50
000
ASHW40 PHFO 200143
RWRHI

WEATHER ROUNDUP FOR HAWAII
NATIONAL WEATHER SERVICE HONOLULU HI
300 PM HST FRI DEC 19 2014

THIS IS AN AUTOMATED REPORT THAT HAS NOT BEEN QUALITY CONTROLLED.

NOTE..."FAIR" INDICATES FEW OR NO CLOUDS BELOW 12,000 FEET WITH NO
SIGNIFICANT WEATHER AND/OR OBSTRUCTIONS TO VISIBILITY.

* - THESE SITES REPORT LIMITED FIELDS

HIZ001>004-200200-
KAUAI-NIIHAU-

CITY           SKY/WX    TMP DP  RH WIND       PRES   REMARKS
LIHUE APT      MOSUNNY   79  68  69 E13       30.03F
PORT ALLEN*      N/A     82 N/A N/A E15G21      N/A
POIPU*           N/A     81 N/A N/A NE8G15      N/A
PRINCEVILLE*     N/A     79 N/A N/A MISG        N/A
KOKOLE POINT*    N/A     81 N/A N/A MISG        N/A
MOLOAA DAIRY*  NOT AVBL
WAIMEA HTS*      N/A     82  57  42 E10G16      N/A
PUU OPAE*        N/A     75  57  53 SE8G15      N/A
PUU LUA*       NOT AVBL
MAKAHA RIDGE*  NOT AVBL
$$

HIZ005>011-200200-
OAHU-

CITY           SKY/WX    TMP DP  RH WIND       PRES   REMARKS
HONOLULU       MOSUNNY   82  66  58 NE15      29.99F
KALAELOA       PTSUNNY   81  66  60 VRB6G17   30.00F
KANEOHE MCB    MOSUNNY   80  68  66 E9G17     30.00F
WHEELER FIELD  FAIR      76  66  71 E10       30.02F
BELLOWS*         N/A    N/A N/A N/A NE20        N/A
KAHUKU*          N/A    N/A N/A N/A E12G22      N/A
WHEELER*       NOT AVBL
WAIANAE HARBOR   N/A     32 N/A N/A E8G16       N/A  WCI  25
DILLINGHAM*      N/A     82  64  54 E6G17       N/A
KAHUKU TRN*      N/A     75  68  78 E12G26      N/A
KAWAILOA*        N/A     72  68  88 E7G22       N/A
KII*             N/A     79  70  73 E18G25      N/A
MAKUA RANGE*     N/A     84  64  51 E10G18      N/A
OAHU FOREST NW   N/A     64 -11   4 CALM        N/A
SCHOFIELD BRK*   N/A     73  64  73 MISG        N/A
SCHOFIELD S*   NOT AVBL
WAIANAE VLY*     N/A     82  64  54 S8G21       N/A
KUAOKALA*        N/A     73  64  73 CALM        N/A
HONOULIUULI*   NOT AVBL
MOKUOLOE IS*     N/A    N/A N/A N/A MISG        N/A
PALEHUA*         N/A     88  70  55 CALM        N/A  HX  92
WAIAWA PHB*    NOT AVBL
$$

HIZ012>013-200200-
MOLOKAI-

CITY           SKY/WX    TMP DP  RH WIND       PRES   REMARKS
MOLOKAI AIRPT  MOSUNNY   81  66  60 NE12G21   29.99F
KALAUPAPA      NOT AVBL
MAKAPULAPAI*     N/A     81  70  69 E21G33      N/A
MOLOKAI 1*       N/A     72  59  64 E6G18       N/A
PUU ALII*        N/A     61  59  92 SE3G14      N/A
$$

HIZ016-200200-
KAHOOLAWE-

CITY           SKY/WX    TMP DP  RH WIND       PRES   REMARKS
KAHOOLAWE*       N/A     73 N/A N/A E28G39      N/A
HAKIOAWA*        N/A     76  67  74 MISG      30.39
HONOKANAIA*      N/A     82  67  59 NE22G40   29.99
KANELOA*         N/A     79  68  69 E26G44    29.21F
KEALIALALO*    NOT AVBL
LUA MAKIKA*    NOT AVBL
$$

HIZ014>015-200200-
LANAI-

CITY           SKY/WX    TMP DP  RH WIND       PRES   REMARKS
LANAI CITY     FAIR      78  64  61 CALM      30.04F
LANAI 1*         N/A     79  70  73 NE8G18      N/A
$$

HIZ017>028-200200-
MAUI-

CITY           SKY/WX    TMP DP  RH WIND       PRES   REMARKS
KAHULUI        MOSUNNY   84  65  52 E18G26    29.96F
KAPALUA-W MAUI MOSUNNY   79  66  65 NE22      29.99F
HANA AIRPORT   MOSUNNY   77  68  73 E9        30.04S
HANA*            N/A     79 N/A N/A E10G20      N/A
HALEAKALA SUMM   N/A     55  -6   8 SE28        N/A
MAALAEA BAY*   NOT AVBL
HALEAKALA*     NOT AVBL
KAUPO GAP*       N/A     70  55  60 S7G17       N/A
KULA 1*          N/A    N/A N/A N/A E6G24       N/A
$$

HIZ023>026-200200-
BIG ISLAND OF HAWAII COAST AND LOWER SLOPES-

CITY           SKY/WX    TMP DP  RH WIND       PRES   REMARKS
KAILUA KONA    SUNNY     81  68  64 S9        29.95F
HILO           MOSUNNY   81  67  62 SE9       30.02F
HONOKAA*       NOT AVBL
KAWAIHAE MWT*    N/A     81 N/A N/A W6          N/A
KAWAIHAE*        N/A     79 N/A N/A W5          N/A
SOUTH POINT*     N/A     73 N/A N/A NE24G33     N/A
UPOLU AIRPORT*   N/A    N/A N/A N/A E22G30      N/A
KAMUELA*       CLEAR     75  61  60 N9        30.08S
HAKALAU*         N/A     73  33  23 S6G12       N/A
KALOKO-HONOKO*   N/A     81  68  65 SW8       29.95F
PALI 2*          N/A     75  57  53 NE16G25     N/A
KEALAKOMO*       N/A     84  68  58 E20G29      N/A
KAUPULEHU*       N/A     81  63  54 W12G18      N/A
KAPAPALA*        N/A     77  64  65 E5G20       N/A
LOWER KAHUKU*    N/A     66  63  88 NE3G15      N/A
PUHE CS*       NOT AVBL
PUHO CS*         N/A     82  65  56 W3          N/A
PTA KEAMUKU*     N/A     72  61  68 CALM        N/A
WAIKOLOA*        N/A     77  63  61 W7          N/A
$$

HIZ027>028-200200-
BIG ISLAND OF HAWAII INTERIOR AND SUMMMITS-

CITY           SKY/WX    TMP DP  RH WIND       PRES   REMARKS
BRADSHAW FIELD SUNNY     77   7   7 SE18G29   30.28F
MK VISITOR CEN NOT AVBL
MAUNA KEA*       N/A     41 -17   8 SE29        N/A
MAUNA LOA*       N/A     57 -31   2 MISG        N/A
MAUNA LOA 1*   NOT AVBL
PTA KIPUKA*      N/A     72  55  56 N6G13       N/A
PTA RANGE 17*    N/A     79 -17   2 SE10G28     N/A
PTA WEST*      NOT AVBL
NENE CABIN*      N/A    N/A N/A N/A E8G14       N/A
AHUMOA*          N/A     65  58  78 N7          N/A
PTA PORTABLE*  NOT AVBL
PUU MALI*      NOT AVBL
$$

HIC003-200200-
NORTHWEST ISLANDS-

CITY           SKY/WX    TMP DP  RH WIND       PRES   REMARKS
MIDWAY ISLAND  LGT RAIN  72  70  94 W21G32    29.86F FOG
MIDWAY NOS*    NOT AVBL
FRENCH FRIGATE NOT AVBL
$$

PHZ110>124-180-200200-
BUOY REPORTS

STATION/POSITION TIME  TEMP    WIND        PRES    WAVE   SWELL
                       AIR SEA DIR/SP/G            HT/PER HT/DIR
                 (UTC) (F)     (DEG/KT/KT) (MB)    (FT/S) (FT/D)
BUOY 51001       NOT AVBL
BUOY 51101       0100   76 77  120/ 12/ 14 1016.7F   8/13   8/320
BUOY 51100       0100   75 75  120/ 14/ 17 1018.6F
BUOY 51003       0100   78 79   70/ 14/ 17 1014.9F  10/13   8
BUOY 51004       0047   77 78   70/ 23/ 29 1013.7F  10/ 8   5/300
BARBERS PT BUOY  NOT AVBL
WAIMEA BAY BUOY  0100      78                N/A     8/13   7/320
KAILUA BAY BUOY  0100      78                N/A     8/13   3/340
LANAI BUOY       0100      78                N/A     3/14   2/290
BARBERS PT 2     0100      78                N/A     7/13   5/320
PAUWELA MAUI     0100      77                N/A     9/13   7/320
HILO             0100      78                N/A     9/ 8   5/340
KANEOHE BAY BUOY 0100      77                N/A     7/14   3/350
HANALEI KAUAI    NOT AVBL
KAHULUI HARBOR   0100   79 76   60/ 15/ 21 1014.3F
HONOLULU HARBOR  0100   79      90/  8/ 18 1016.1F
KILO NALU        NOT AVBL
HILO HARBOR      0100   85     120/  9/ 12 1016.1F
MOKUOLOE         0100   78 75   90/ 11/ 15 1016.5F
NAWILIWILI       0100      76                N/A
WHOTS BUOY       NOT AVBL
BUOY 51028       NOT AVBL
$$

......................KEY........................................
  SKY/WX - SKY CONDITIONS/PRESENT WEATHER
  TMP    - TEMPERATURE IN FAHRENHEIT
  DWPT   - DEWPOINT IN FAHRENHEIT
  RH     - RELATIVE HUMIDITY IN PERCENT
  WIND   - DIRECTION AND SPEED /MPH FOR ISLANDS...KTS FOR BUOYS/
  PRES   - MEAN SEA LEVEL PRESSURE IN INCHES OF HG
  VSB    - VISIBILITY IN MILES
  HX     - HEAT INDEX
  WCI    - WIND CHILL INDEX
  VRB    - VARIABLE WIND DIRECTION
  N/A    - NOT AVAILABLE


USA.gov is the U.S. government's official web portal to all federal, state and local government web resources and services.